Погода в Частовой

Россия / Новгородская область     58°36′42″N   32°04′20″E
темп.,
°C
ветер,
м/с
пор.,
м/с
влажн.,
%
обл.,
%
осадки,
мм/ч
давл.,
гПа
погр.,
м
4 августа, ср
ср400:00+12з310895 0.0 1010387
03:00+10зюз27935 0.0 1012156
06:00+11юз25891 0.0 1013113
09:00+16зюз35585 0.0 1014839
12:00+19зюз45483 0.1 10151831
15:00+19зюз354885 0.1 10151300
18:00+18зюз255499 0.0 1015585
21:00+13юз227376 0.0 101514
5 августа, чт
чт500:00+12ю227771 0.0 101738
03:00+12ю228290 0.0 101726
06:00+12юв128194 0.0 101744
09:00+15вюв1263100 0.0 1016240
12:00+14ю1281100 0.4 1017256
15:00+12ссв2597100 3.2 1016273
18:00+12св3897100 2.5 1015402
21:00+12ссв3998100 3.6 1015409
6 августа, пт
пт600:00+12ссв41097100 0.2 1014582
03:00+12ссв31196100 0.2 1014612
06:00+12ссв4129573 0.1 1013601
09:00+14св4786100 0.1 1013703
12:00+16св467799 0.1 1013822
15:00+17всв3572100 0.1 1012942
18:00+17всв4882100 0.0 1012682
21:00+15всв4108663 0.0 1012594
7 августа, сб
сб700:00+14всв41190100 0.0 1012542
03:00+15всв41289100 0.0 1011556
06:00+14всв51396100 0.7 1010563
09:00+15всв41296100 0.8 1010642
12:00+15всв51194100 0.0 1010618
15:00+16в41198100 1.6 1010633
18:00+16вюв41198100 2.4 1009538
21:00+16вюв399896 3.3 1009391
8 августа, вс
вс800:00+16вюв2899100 0.0 1010380
03:00+16в25100100 0.2 1010183
06:00+16вюв1399100 0.0 1010130
09:00+17ююз1398100 0.0 1010254
12:00+18ююз128958 0.0 1012418
15:00+23ююз236197 0.1 10111364
18:00+20юз247175 0.0 1013373
21:00+16юз22950 0.0 101335